Groton, CT

6:24 PM EST on January 16, 2017 (GMT -0500)
Groton-New London

Weather History for KGON - November, 2014

Change the Weather History Date:

Tuesday, November 18, 2014

  Actual Average Record
Temperature  
Mean Temperature 36 °F -  
Max Temperature 46 °F 52 °F 68 °F (2016)
Min Temperature 24 °F 34 °F 20 °F (1959)
Degree Days  
Heating Degree Days 30    
Moisture  
Dew Point 19 °F    
Average Humidity 53    
Maximum Humidity 86    
Minimum Humidity 31    
Precipitation  
Precipitation 0.00 in - - ()
Sea Level Pressure  
Sea Level Pressure 29.75 in    
Wind  
Wind Speed 13 mph (West)    
Max Wind Speed 20 mph    
Max Gust Speed 26 mph    
Visibility 9 miles    
Events      
Averages and records for this station are not official NWS values.
T = Trace of Precipitation, MM = Missing Value Source: NWS Daily Summary

Daily Weather History Graph

Daily Weather History Graph

Search for Another Location

Airport or City:

Trip Planner

Search our weather history database for the weather conditions in past years. The results will help you decide how hot, cold, wet, or windy it might be!

Date:

Astronomy

Nov. 18, 2014 Rise Set
Actual Time 6:39 AM EST 4:26 PM EST
Civil Twilight 6:10 AM EST 4:56 PM EST
Nautical Twilight 5:36 AM EST 5:29 PM EST
Astronomical Twilight 5:03 AM EST 6:02 PM EST
Moon 2:32 AM EST (11/18) 2:21 PM EST (11/18)
Length of Visible Light 10h 46m
Length of Day
9h 46m
Waning Crescent, 15% of the Moon is Illuminated
Nov 18
Waning Crescent
Nov 22
New
Nov 29
First Quarter
Dec 6
Full
Dec 14
Last Quarter

Hourly Weather History & Observations

Time (EST) Temp. Windchill Dew Point Humidity Pressure Visibility Wind Dir Wind Speed Gust Speed Precip Events Conditions
12:56 AM 46.9 °F - 43.0 °F 86% 29.51 in 10.0 mi West 6.9 mph - N/A   Overcast
1:56 AM 46.0 °F 42.5 °F 41.0 °F 83% 29.51 in 10.0 mi WNW 6.9 mph - N/A   Overcast
2:56 AM 45.0 °F 38.5 °F 36.0 °F 71% 29.56 in 10.0 mi WNW 13.8 mph - N/A   Overcast
3:56 AM 44.1 °F 39.0 °F 37.0 °F 76% 29.56 in 10.0 mi West 9.2 mph - N/A   Overcast
4:05 AM 44.1 °F 38.6 °F 37.0 °F 76% 29.56 in 10.0 mi West 10.4 mph - N/A   Overcast
4:56 AM 42.1 °F 34.9 °F 30.9 °F 65% 29.59 in 10.0 mi West 13.8 mph - N/A   Clear
5:56 AM 39.9 °F 31.8 °F 30.9 °F 70% 29.60 in 10.0 mi West 15.0 mph 23.0 mph N/A   Scattered Clouds
6:56 AM 39.2 °F 31.2 °F 30.2 °F 70% 29.63 in 8.0 mi West 13.8 mph 21.9 mph N/A   Clear
7:56 AM 37.9 °F 29.2 °F 26.1 °F 62% 29.68 in 7.0 mi West 15.0 mph 21.9 mph N/A   Clear
8:56 AM 37.0 °F 27.7 °F 23.0 °F 57% 29.70 in 10.0 mi West 16.1 mph 25.3 mph N/A   Clear
9:56 AM 37.0 °F 27.4 °F 21.9 °F 54% 29.72 in 10.0 mi West 17.3 mph 20.7 mph N/A   Clear
10:56 AM 37.0 °F 26.7 °F 21.0 °F 52% 29.73 in 7.0 mi WSW 19.6 mph 24.2 mph N/A   Clear
11:56 AM 37.0 °F 27.4 °F 15.1 °F 41% 29.74 in 8.0 mi West 17.3 mph 24.2 mph N/A   Clear
12:56 PM 35.1 °F 24.8 °F 10.9 °F 37% 29.75 in 10.0 mi WSW 17.3 mph 26.5 mph N/A   Clear
1:56 PM 35.1 °F 25.5 °F 7.0 °F 31% 29.76 in 8.0 mi West 15.0 mph 21.9 mph N/A   Clear
2:56 PM 34.0 °F 23.8 °F 7.0 °F 32% 29.79 in 8.0 mi NW 16.1 mph 24.2 mph N/A   Clear
3:56 PM 32.0 °F 21.6 °F 6.1 °F 34% 29.83 in 8.0 mi West 15.0 mph 24.2 mph N/A   Clear
4:56 PM 30.0 °F 19.1 °F 5.0 °F 35% 29.86 in 9.0 mi West 15.0 mph 23.0 mph N/A   Clear
5:56 PM 28.9 °F 19.2 °F 6.1 °F 38% 29.89 in 9.0 mi West 11.5 mph - N/A   Clear
6:56 PM 28.9 °F 19.2 °F 6.1 °F 38% 29.92 in 9.0 mi West 11.5 mph - N/A   Clear
7:56 PM 28.0 °F 16.5 °F 5.0 °F 38% 29.95 in 9.0 mi West 15.0 mph 19.6 mph N/A   Clear
8:56 PM 27.0 °F 15.6 °F 6.1 °F 41% 29.97 in 9.0 mi West 13.8 mph 21.9 mph N/A   Clear
9:56 PM 26.1 °F 13.1 °F 6.1 °F 43% 29.99 in 9.0 mi West 17.3 mph 23.0 mph N/A   Clear
10:56 PM 25.0 °F 11.3 °F 6.1 °F 45% 30.00 in 9.0 mi West 18.4 mph 24.2 mph N/A   Clear
11:56 PM 24.1 °F 9.8 °F 5.0 °F 44% 30.03 in 9.0 mi West 19.6 mph 26.5 mph N/A   Clear